Aeroporto :
LOGIN :

Iscrizione | Disclaimer

   EN    FR    IT 

 










Sommario :    VFR   VFR Marginale   IFR   IFR Intensivo   IFR Molto Intensivo
Visibilità : 
Base nubi : 
>= 8 km
>= 3000ft
5 / 8 km
1000 / 3000 ft
1500m / 5 km
500 / 1000 ft
800 / 1500m
200 / 500 ft
< 800m
< 200 ft
Simboli :   Temporali  Nebbia  Neve Forte  Precipitazioni Forti  Vento > 20 kt
SIGMETs :   Varie  Temporali  Ghiacco  Turbolenza  Onda orograficha  Ceneri Vulcaniche






- Altitudine del aeroporto : 68 ft


ESCM - Uppsala

ULTIMO METAR :
  • 280950Z 32003KT 290V350 CAVOK M01/M07 Q1002

METARs OBSOLETI :
  • 280920Z VRB02KT CAVOK M02/M06 Q1002
  • 280850Z 33003KT CAVOK M02/M06 Q1002
  • 280820Z 32004KT CAVOK M03/M06 Q1002
  • 280750Z 00000KT CAVOK M03/M05 Q1001
  • 280720Z 00000KT 9999 FEW024 M05/M06 Q1001

TAF TAF ESCM
Valido dal 28 a 09 ore il 28 a 11 ore UTC


280830Z 2809/2811 31005KT CAVOK RMK MIL



MetMap, La meteo Aeronautica in un colpo d'occhio ! - Copyright ORBIFLY Dicembre 2007 - Disclaimer

ORBIFLY MET'MAP TEAM :

Programmazione e sviluppo : Alexandra Zaïnal
Concezione : Baudouin d'Aumeries
Aiuto per la programmazione : Marc-Olivier Méhu
Supporto tecnico e logistico : Manuel Goepfert
Aiuto per la traduzione : Arnaldo La Scala

Contatto : metmap@orbifly.com




FONTI E CREDITI :

   NOAA